TimeEST,TemperatureF,Dew PointF,Humidity,Sea Level PressureIn,VisibilityMPH,Wind Direction,Wind SpeedMPH,Gust SpeedMPH,PrecipitationIn,Events,Conditions,WindDirDegrees,DateUTC
12:53 AM,35.1,28.0,76,30.20,9.0,NW,5.8,-,N/A,,Overcast,310,2013-03-07 05:53:00
1:53 AM,35.1,28.0,76,30.21,9.0,WNW,3.5,-,N/A,,Overcast,300,2013-03-07 06:53:00
2:53 AM,35.1,27.0,72,30.21,9.0,WNW,5.8,-,N/A,,Overcast,300,2013-03-07 07:53:00
3:53 AM,34.0,27.0,75,30.22,9.0,Calm,Calm,-,N/A,,Overcast,0,2013-03-07 08:53:00
4:53 AM,34.0,27.0,75,30.23,9.0,NW,4.6,-,N/A,,Overcast,310,2013-03-07 09:53:00
5:53 AM,34.0,27.0,75,30.25,8.0,WNW,5.8,-,N/A,,Overcast,290,2013-03-07 10:53:00
6:53 AM,34.0,27.0,75,30.26,8.0,WNW,5.8,-,N/A,,Overcast,300,2013-03-07 11:53:00
7:53 AM,35.1,28.0,76,30.27,5.0,NW,5.8,-,N/A,,Haze,310,2013-03-07 12:53:00
8:53 AM,36.0,28.9,76,30.30,6.0,NW,10.4,-,N/A,,Haze,320,2013-03-07 13:53:00
9:53 AM,37.9,28.9,70,30.31,7.0,NW,13.8,-,N/A,,Overcast,310,2013-03-07 14:53:00
10:29 AM,37.4,28.4,70,30.30,10.0,NNW,11.5,-,N/A,,Overcast,330,2013-03-07 15:29:00
10:53 AM,37.9,28.9,70,30.32,10.0,NW,8.1,-,N/A,,Overcast,320,2013-03-07 15:53:00
11:17 AM,39.2,28.4,65,30.31,10.0,NNW,12.7,-,N/A,,Overcast,330,2013-03-07 16:17:00
11:53 AM,39.0,28.0,65,30.33,10.0,NNW,10.4,-,N/A,,Overcast,330,2013-03-07 16:53:00
12:53 PM,39.0,27.0,62,30.32,10.0,NNW,11.5,-,N/A,,Mostly Cloudy,340,2013-03-07 17:53:00
1:29 PM,39.2,26.6,61,30.31,10.0,NW,10.4,-,N/A,,Overcast,310,2013-03-07 18:29:00
1:53 PM,39.0,26.1,60,30.32,10.0,NNW,12.7,-,N/A,,Overcast,340,2013-03-07 18:53:00
2:53 PM,37.9,25.0,60,30.33,10.0,NNW,11.5,-,N/A,,Overcast,340,2013-03-07 19:53:00
3:53 PM,37.9,24.1,57,30.34,10.0,NNW,9.2,-,N/A,,Overcast,330,2013-03-07 20:53:00
4:53 PM,37.0,24.1,59,30.35,10.0,North,9.2,-,N/A,,Overcast,360,2013-03-07 21:53:00
5:53 PM,36.0,23.0,59,30.36,10.0,NNW,10.4,-,N/A,,Overcast,340,2013-03-07 22:53:00
6:53 PM,35.1,21.0,57,30.38,10.0,NNW,10.4,-,N/A,,Overcast,340,2013-03-07 23:53:00
7:53 PM,34.0,19.9,56,30.40,10.0,North,6.9,-,N/A,,Overcast,350,2013-03-08 00:53:00
8:53 PM,33.1,19.0,56,30.40,10.0,North,3.5,-,N/A,,Overcast,360,2013-03-08 01:53:00
9:53 PM,30.9,18.0,59,30.40,10.0,North,3.5,-,N/A,,Overcast,350,2013-03-08 02:53:00
10:53 PM,30.9,18.0,59,30.40,10.0,Calm,Calm,-,N/A,,Partly Cloudy,0,2013-03-08 03:53:00
11:53 PM,27.0,18.0,69,30.40,10.0,NNW,4.6,-,N/A,,Clear,330,2013-03-08 04:53:00